Details From EGWU - RAF Northolt
To EKAH - Aarhus
Flight Number -
Tags decoded
Created
Modified
Stats Distance 483 nm / 894 km
Max Altitude 0 ft / 0 m
Waypoints 2
Social Downloads 0
Likes 0
Share VATSIM

Download

Looking for another format? Having issues loading an existing format? Contact us
Advertisement - Login to hide

Notes

Requested: EGWU LBV EKAH

Route

EGWU EKAH

ID Type Via Altitude Latitude Longitude Leg Dist Tot Dist Heading (true) Name
O EGWU APT - 0 ft / 0 m 51.55270˚ -0.41959˚ - 0 nm - RAF Northolt
O EKAH APT - 0 ft / 0 m 56.30426˚ 10.61945˚ 482 nm 482 nm 49° / 58° Aarhus

Altitude Profile

Advertisement - Login to hide

Weather


0- 5 10 15 20 25 30 35+ Temperature / ° C

Clouds and Precipitation
Forecast for 2017-12-12 12:00 UTC. Updated an hour ago

Ground ~20,000 ft ~40,000 ft Winds

EGWU

Details ICAO EGWU (NHT)
Name RAF Northolt
Region United Kingdom
Timezone Europe/London (UTC+0.0)
Stats Elevation 124 ft / 38 m (AMSL)
Location 51.552696° -0.419593°
Runways 1
Magnetic Variation 0.555° W

METAR

EGWU 120950Z 19003KT 7000 HZ FEW240 M00/M02 Q1009 BLACKWHT BECMG 8000 BLU

Decode

TAF

TAF EGWU 120745Z 1209/1303 25005KT 7000 HZ NSC BECMG 1209/1212 9999 NSW BECMG 1221/1223 19015KT -RA BKN012 PROB40 TEMPO 1223/1303 4000 RA BKN006

Decode

Departure Runways

ID Width Length Bearing (true) Bearing (mag) Surface Threshold Offset Overrun Length
07 151 ft / 46 m 5,531 ft / 1,686 m 69.62° 70.18° Asphalt 302 ft / 92 m 0 ft / 0 m
25 151 ft / 46 m 5,531 ft / 1,686 m 249.64° 250.20° Asphalt 0 ft / 0 m 0 ft / 0 m

EKAH

Details ICAO EKAH (AAR)
Name Aarhus
Region Denmark / Faroe Islands
Timezone Europe/Copenhagen (UTC+1.0)
Stats Elevation 82 ft / 25 m (AMSL)
Location 56.304265° 10.619452°
Runways 2
Magnetic Variation 3.050° E

METAR

EKAH 121020Z AUTO 32014KT 9999NDV OVC028/// 02/00 Q0994 R99/290295

Decode

TAF

TAF AMD EKAH 120823Z 1208/1306 35012KT 9999 BKN020 TEMPO 1208/1210 BKN012 BECMG 1217/1220 22010KT TEMPO 1220/1224 4000 SHRA BKN025CB TEMPO 1303/1306 20015G25KT BKN008

Decode

Destination Runways

ID Width Length Bearing (true) Bearing (mag) Surface Threshold Offset Overrun Length
10L 75 ft / 23 m 9,081 ft / 2,768 m 100.30° 97.25° Asphalt 0 ft / 0 m 0 ft / 0 m
10R 148 ft / 45 m 8,837 ft / 2,693 m 100.29° 97.24° Asphalt 0 ft / 0 m 902 ft / 275 m
28L 148 ft / 45 m 8,837 ft / 2,693 m 280.33° 277.28° Asphalt 0 ft / 0 m 738 ft / 225 m
28R 75 ft / 23 m 9,081 ft / 2,768 m 280.34° 277.29° Asphalt 0 ft / 0 m 0 ft / 0 m

Approach Navaids

Runway Type Ident Frequency Range Bearing (true) Bearing (mag) Slope Elevation
10R Localiser AAR 111.90 MHz 18 nm / 33 km 100.33° 97.28° - 82 ft / 25 m (AMSL)
10R Glidescope AAR 111.90 MHz 10 nm / 19 km 100.31° 97.26° 2.75° 82 ft / 25 m (AMSL)
28L Localiser TR 111.10 MHz 18 nm / 33 km 280.29° 277.24° - 82 ft / 25 m (AMSL)
28L Glidescope TR 111.10 MHz 10 nm / 19 km 280.31° 277.26° 2.75° 82 ft / 25 m (AMSL)
28L DME TR 111.10 MHz 18 nm / 33 km - - - 79 ft / 24 m (AMSL)

Popular Alternatives